Content
SEND FEEDBACK

Daily
Averages
Monthly
Summary
United States of America

HAINES, ALASKA


Home > North America > United States > Alaska
Elevation: 1372 feet     Latitude: 59 15N     Longitude: 135 31W

WEATHER
 
SELECT A DAY
Number of Records: 191,521;   Date Range: 6/13/96 - 7/7/14
 
SHARE

PRINT THIS DATA

[ ← Previous Day ]
WEATHER ALMANAC - FEBRUARY 13, 2013
[ Next Day → ]
[ °C ]   °F
Weather ElementAverageHighLow
Temperature27.6 °F35.1 °F (11:54 pm)23 °F (6:54 am)
Dewpoint23.6 °F32 °F (10:44 pm)17.6 °F (3:01 am)
Humidity84.9 %96 % (8:54 pm)72 % (11:50 am)
Barometer30.18 in30.24 in (10:54 am)30.10 in (11:07 pm)
Wind Speed10 mph13.8 mph (8:54 am)
Wind Gust21.9 mph (11:54 pm)
Weather ElementAverage
Visibility4.6 mi
Wind DirectionW (268.7 °)

Weather ElementTotal
Precipitation0.02 in
Heating Degree Days36 (Base 65)
Averaged from 47 records on February 13, 2013
WEATHER CONDITIONS BREAKOUT
WIND DIRECTION BREAKOUT
WEATHER BY HOUR - FEBRUARY 13, 2013
[ °C ]   °F
Local TimeTemperatureDewpointHumidityBarometerVisibilityWind DirectionWind SpeedGust SpeedPrecipitationEventsConditions
1:54 AM25.0 °F18.0 °F75 %30.15 in10.0 miWNW (290°)12.7 mphMostly Cloudy
2:54 AM24.1 °F19.0 °F81 %30.17 in10.0 miWNW (290°)10.4 mphScattered Clouds
3:01 AM24.8 °F17.6 °F74 %30.16 in10.0 miWNW (290°)12.7 mphMostly Cloudy
3:20 AM24.8 °F17.6 °F74 %30.17 in10.0 miWNW (290°)12.7 mphMostly Cloudy
3:54 AM24.1 °F18.0 °F77 %30.18 in10.0 miWNW (290°)10.4 mphMostly Cloudy
4:54 AM24.1 °F19.0 °F81 %30.18 in10.0 miWNW (290°)9.2 mphOvercast
5:40 AM24.8 °F19.4 °F80 %30.18 in10.0 miWNW (290°)5.8 mphOvercast
5:54 AM25.0 °F19.0 °F78 %30.19 in10.0 miWest (280°)5.8 mphOvercast
6:54 AM23.0 °F19.0 °F85 %30.19 in3.0 miWNW (290°)10.4 mph0.00 inSnowLight Snow
7:54 AM23.0 °F19.0 °F85 %30.20 in2.5 miWNW (290°)12.7 mph0.00 inSnowLight Snow
8:54 AM24.1 °F19.9 °F84 %30.22 in3.0 miWNW (290°)13.8 mph0.00 inSnowLight Snow
9:54 AM25.0 °F19.9 °F81 %30.23 in8.0 miWNW (290°)12.7 mph0.00 inSnowLight Snow
10:54 AM25.0 °F19.9 °F81 %30.24 in3.0 miWNW (290°)10.4 mph0.00 inSnowLight Snow
11:05 AM26.6 °F21.2 °F80 %30.23 in2.0 miWNW (290°)12.7 mph0.00 inSnowLight Snow
11:23 AM26.6 °F21.2 °F80 %30.23 in1.2 miWNW (290°)12.7 mph0.00 inSnowLight Snow
11:49 AM26.6 °F19.4 °F74 %30.23 in3.0 miWNW (290°)13.8 mph0.00 inSnowLight Snow
11:50 AM27.0 °F19.0 °F72 %30.24 in3.0 miWNW (300°)12.7 mph0.00 inSnowLight Snow
12:40 PM26.6 °F21.2 °F80 %30.22 in2.0 miWNW (290°)12.7 mph0.00 inSnowLight Snow
12:47 PM26.6 °F21.2 °F80 %30.23 in1.5 miWNW (290°)11.5 mph0.00 inSnowLight Snow
12:54 PM28.0 °F23.0 °F81 %30.24 in1.8 miWNW (300°)12.7 mph0.00 inSnowLight Snow
1:03 PM28.4 °F23.0 °F80 %30.23 in2.0 miWNW (290°)11.5 mph0.00 inSnowLight Snow
1:30 PM28.4 °F24.8 °F86 %30.22 in4.0 miWNW (300°)10.4 mph0.00 inSnowLight Snow
1:54 PM28.9 °F23.0 °F78 %30.23 in7.0 miWNW (290°)9.2 mph0.00 inSnowLight Snow
2:54 PM30.0 °F23.0 °F75 %30.22 in4.0 miWNW (300°)8.1 mph0.00 inSnowLight Snow
3:09 PM28.4 °F24.8 °F86 %30.20 in2.0 miWNW (290°)9.2 mph0.00 inSnowLight Snow
3:27 PM28.4 °F24.8 °F86 %30.19 in3.0 miWNW (300°)8.1 mph0.00 inSnowLight Snow
3:37 PM28.4 °F24.8 °F86 %30.19 in2.0 miWNW (300°)9.2 mph0.00 inSnowLight Snow
3:54 PM28.9 °F25.0 °F85 %30.20 in2.5 miWNW (290°)11.5 mph0.00 inSnowLight Snow
4:05 PM28.4 °F24.8 °F86 %30.19 in3.0 miWNW (300°)9.2 mph0.00 inOvercast
4:17 PM28.4 °F24.8 °F86 %30.19 in2.5 miWNW (300°)9.2 mph0.00 inOvercast
4:37 PM28.4 °F26.6 °F93 %30.19 in3.0 miWNW (290°)10.4 mph0.00 inOvercast
4:54 PM28.0 °F26.1 °F92 %30.20 in4.0 miWNW (290°)9.2 mph0.00 inOvercast
5:54 PM28.9 °F26.1 °F89 %30.18 in10.0 miNW (310°)11.5 mph0.00 inOvercast
6:35 PM28.4 °F26.6 °F93 %30.16 in2.5 miWNW (290°)11.5 mph0.00 inSnowLight Snow
6:44 PM28.4 °F26.6 °F93 %30.16 in3.0 miWNW (300°)12.7 mph0.00 inSnowLight Snow
6:54 PM28.9 °F26.1 °F89 %30.16 in2.5 miNW (310°)10.4 mph0.00 inSnowLight Snow
7:12 PM28.4 °F26.6 °F93 %30.14 in3.0 miWNW (300°)8.1 mph0.00 inSnowLight Snow
7:54 PM28.0 °F26.1 °F92 %30.16 in2.0 miWNW (300°)8.1 mph0.00 inSnowLight Snow
8:02 PM28.4 °F26.6 °F93 %30.16 in1.5 miWNW (300°)8.1 mph0.00 inSnowLight Snow
8:15 PM28.4 °F26.6 °F93 %30.15 in3.0 miWNW (290°)8.1 mph0.00 inSnowLight Snow
8:54 PM28.0 °F27.0 °F96 %30.14 in2.5 miWest (280°)5.8 mph0.01 inSnowLight Snow
9:22 PM28.4 °F26.6 °F93 %30.13 in4.0 miCalm0.00 inSnowLight Snow
9:54 PM28.0 °F27.0 °F96 %30.14 in7.0 miNW (310°)5.8 mph0.00 inSnowLight Snow
10:44 PM33.8 °F32.0 °F93 %30.11 in4.0 miENE (60°)9.2 mph17.3 mph0.00 inSnowLight Snow
10:54 PM34.0 °F32.0 °F92 %30.12 in4.0 miEast (90°)8.1 mph0.00 inSnowLight Snow
11:07 PM33.8 °F32.0 °F93 %30.10 in5.0 miENE (70°)10.4 mph16.1 mph0.00 inSnowLight Snow
11:54 PM35.1 °F32.0 °F89 %30.10 in10.0 miENE (70°)9.2 mph21.9 mph0.01 inOvercast
Hourly data recorded from PAHN, located miles away from Haines, Alaska







STORIES FROM OUR PARTNERS